CEB251 RPVM-RPMR

Flight info

Callsign CEB251
Flight time 0h 49m
Altitude 29000
Route DUMEX1Q DUMEX W6A LUMVI W22 COT W19 MELBY MELBY3R
Aircraft A21N/M-SDE3FGHIRWY/LB1

Departure

Time 2026-05-07 01:45
Airport Mactan Cebu International Airport (RPVM)

Arrival

Time 2026-05-07 02:34
Airport General Santos International Airport (RPMR)
Time Latitude Longitude Altitude Speed Heading
2026-05-07 01:20 10.31503 123.97930 45 ft 0 kts 314°
2026-05-07 01:29 10.31496 123.97937 45 ft 2 kts 314°
2026-05-07 01:29 10.31486 123.97948 45 ft 2 kts 314°
2026-05-07 01:30 10.31475 123.97958 45 ft 2 kts 314°
2026-05-07 01:30 10.31467 123.97967 45 ft 0 kts 314°
2026-05-07 01:30 10.31459 123.97977 45 ft 2 kts 287°
2026-05-07 01:30 10.31458 123.97993 45 ft 2 kts 257°
2026-05-07 01:31 10.31464 123.98006 45 ft 0 kts 229°
2026-05-07 01:31 10.31468 123.98010 45 ft 1 kts 222°
2026-05-07 01:31 10.31470 123.98012 45 ft 0 kts 224°
2026-05-07 01:33 10.31468 123.98010 45 ft 1 kts 224°
2026-05-07 01:34 10.31452 123.97993 45 ft 5 kts 225°
2026-05-07 01:34 10.31419 123.97960 45 ft 8 kts 225°
2026-05-07 01:34 10.31381 123.97921 45 ft 7 kts 225°
2026-05-07 01:34 10.31331 123.97901 45 ft 9 kts 167°
2026-05-07 01:35 10.31275 123.97945 45 ft 10 kts 135°
2026-05-07 01:35 10.31223 123.97984 45 ft 9 kts 172°
2026-05-07 01:35 10.31161 123.97942 45 ft 12 kts 227°
2026-05-07 01:35 10.31094 123.97872 45 ft 15 kts 224°
2026-05-07 01:36 10.31012 123.97791 45 ft 17 kts 225°
2026-05-07 01:36 10.30924 123.97702 45 ft 15 kts 225°
2026-05-07 01:36 10.30848 123.97626 45 ft 15 kts 225°
2026-05-07 01:36 10.30780 123.97559 45 ft 11 kts 225°
2026-05-07 01:37 10.30714 123.97491 45 ft 14 kts 225°
2026-05-07 01:37 10.30636 123.97413 45 ft 16 kts 225°
2026-05-07 01:37 10.30547 123.97324 45 ft 18 kts 225°
2026-05-07 01:37 10.30469 123.97245 45 ft 12 kts 225°
2026-05-07 01:38 10.30414 123.97189 45 ft 7 kts 225°
2026-05-07 01:38 10.30399 123.97175 45 ft 0 kts 225°
2026-05-07 01:42 10.30391 123.97167 45 ft 3 kts 214°
2026-05-07 01:42 10.30348 123.97166 45 ft 8 kts 154°
2026-05-07 01:42 10.30319 123.97214 45 ft 7 kts 88°
2026-05-07 01:42 10.30340 123.97254 45 ft 4 kts 47°
2026-05-07 01:43 10.30347 123.97262 45 ft 0 kts 46°
2026-05-07 01:44 10.30361 123.97276 45 ft 14 kts 45°
2026-05-07 01:44 10.30625 123.97540 45 ft 89 kts 45°
2026-05-07 01:44 10.31223 123.98141 45 ft 149 kts 44°
2026-05-07 01:44 10.32022 123.98959 310 ft 171 kts 44°
2026-05-07 01:45 10.32860 123.99805 948 ft 170 kts 45°
2026-05-07 01:45 10.33688 124.00636 1670 ft 166 kts 46°
2026-05-07 01:45 10.34441 124.01508 2106 ft 169 kts 63°
2026-05-07 01:45 10.34511 124.02709 2341 ft 184 kts 106°
2026-05-07 01:46 10.33783 124.03838 2611 ft 201 kts 127°
2026-05-07 01:46 10.32863 124.04984 2845 ft 218 kts 125°
2026-05-07 01:46 10.31880 124.06261 3106 ft 238 kts 124°
2026-05-07 01:46 10.30839 124.07643 3456 ft 254 kts 124°
2026-05-07 01:47 10.29767 124.09081 4018 ft 260 kts 124°
2026-05-07 01:47 10.28665 124.10561 4711 ft 262 kts 124°
2026-05-07 01:47 10.27575 124.12031 5387 ft 263 kts 124°
2026-05-07 01:47 10.26474 124.13519 6053 ft 265 kts 123°
2026-05-07 01:48 10.25376 124.15005 6714 ft 266 kts 123°
2026-05-07 01:48 10.24264 124.16512 7338 ft 268 kts 123°
2026-05-07 01:48 10.23137 124.18037 7946 ft 271 kts 123°
2026-05-07 01:48 10.22010 124.19563 8534 ft 273 kts 123°
2026-05-07 01:49 10.20860 124.21121 9104 ft 276 kts 124°
2026-05-07 01:49 10.19487 124.22501 9586 ft 287 kts 145°
2026-05-07 01:49 10.17593 124.23177 10083 ft 299 kts 169°
2026-05-07 01:49 10.15456 124.23267 10464 ft 310 kts 174°
2026-05-07 01:50 10.13257 124.23308 10698 ft 323 kts 175°
2026-05-07 01:50 10.10940 124.23354 10934 ft 336 kts 175°
2026-05-07 01:50 10.08567 124.23406 11291 ft 344 kts 175°
2026-05-07 01:50 10.06170 124.23463 11803 ft 346 kts 175°
2026-05-07 01:51 10.03745 124.23525 12307 ft 348 kts 175°
2026-05-07 01:51 10.01304 124.23590 12781 ft 351 kts 175°
2026-05-07 01:51 9.98836 124.23657 13235 ft 354 kts 175°
2026-05-07 01:51 9.96374 124.23725 13683 ft 356 kts 175°
2026-05-07 01:52 9.93902 124.23795 14131 ft 358 kts 175°
2026-05-07 01:52 9.91384 124.23864 14590 ft 360 kts 175°
2026-05-07 01:52 9.88872 124.23934 14992 ft 363 kts 175°
2026-05-07 01:52 9.86295 124.24007 15405 ft 366 kts 175°
2026-05-07 01:53 9.83731 124.24078 15826 ft 367 kts 175°
2026-05-07 01:53 9.81190 124.24147 16223 ft 369 kts 175°
2026-05-07 01:53 9.78603 124.24219 16606 ft 372 kts 175°
2026-05-07 01:53 9.76002 124.24289 16984 ft 374 kts 175°
2026-05-07 01:54 9.73387 124.24362 17343 ft 376 kts 175°
2026-05-07 01:54 9.70763 124.24435 17695 ft 378 kts 175°
2026-05-07 01:54 9.68113 124.24508 18030 ft 380 kts 175°
2026-05-07 01:54 9.65467 124.24582 18358 ft 382 kts 175°
2026-05-07 01:55 9.62797 124.24657 18685 ft 384 kts 175°
2026-05-07 01:55 9.60104 124.24731 18997 ft 386 kts 175°
2026-05-07 01:55 9.57373 124.24808 19310 ft 389 kts 175°
2026-05-07 01:55 9.54647 124.24894 19611 ft 390 kts 173°
2026-05-07 01:56 9.51950 124.25185 19907 ft 390 kts 167°
2026-05-07 01:56 9.49295 124.25762 20196 ft 389 kts 161°
2026-05-07 01:56 9.46711 124.26558 20471 ft 391 kts 159°
2026-05-07 01:56 9.44088 124.27422 20757 ft 393 kts 158°
2026-05-07 01:57 9.41501 124.28282 21038 ft 395 kts 158°
2026-05-07 01:57 9.38849 124.29160 21310 ft 397 kts 158°
2026-05-07 01:57 9.36222 124.30026 21579 ft 399 kts 158°
2026-05-07 01:57 9.33563 124.30898 21847 ft 401 kts 159°
2026-05-07 01:58 9.30889 124.31775 22101 ft 403 kts 159°
2026-05-07 01:58 9.28208 124.32652 22363 ft 405 kts 159°
2026-05-07 01:58 9.25514 124.33535 22625 ft 407 kts 159°
2026-05-07 01:58 9.22814 124.34418 22883 ft 408 kts 159°
2026-05-07 01:59 9.20101 124.35304 23137 ft 410 kts 159°
2026-05-07 01:59 9.17349 124.36204 23391 ft 412 kts 159°
2026-05-07 01:59 9.14639 124.37091 23631 ft 414 kts 159°
2026-05-07 01:59 9.11877 124.37994 23879 ft 416 kts 159°
2026-05-07 02:00 9.09089 124.38905 24135 ft 417 kts 159°
2026-05-07 02:00 9.06314 124.39812 24392 ft 419 kts 160°
2026-05-07 02:00 9.03548 124.40714 24639 ft 420 kts 160°
2026-05-07 02:00 9.00726 124.41634 24881 ft 422 kts 160°
2026-05-07 02:01 8.97937 124.42542 25123 ft 423 kts 160°
2026-05-07 02:01 8.95129 124.43456 25361 ft 425 kts 160°
2026-05-07 02:01 8.92312 124.44375 25590 ft 426 kts 160°
2026-05-07 02:01 8.89480 124.45299 25812 ft 428 kts 160°
2026-05-07 02:02 8.86599 124.46239 26020 ft 430 kts 160°
2026-05-07 02:02 8.83738 124.47172 26230 ft 432 kts 160°
2026-05-07 02:02 8.80809 124.48127 26446 ft 433 kts 160°
2026-05-07 02:02 8.77931 124.49065 26652 ft 435 kts 160°
2026-05-07 02:03 8.75028 124.50011 26859 ft 436 kts 160°
2026-05-07 02:03 8.72114 124.50960 27065 ft 438 kts 160°
2026-05-07 02:03 8.69185 124.51915 27267 ft 439 kts 160°
2026-05-07 02:03 8.66281 124.52862 27472 ft 440 kts 161°
2026-05-07 02:04 8.63327 124.53825 27675 ft 442 kts 161°
2026-05-07 02:04 8.60402 124.54778 27866 ft 443 kts 161°
2026-05-07 02:04 8.57454 124.55739 28054 ft 445 kts 161°
2026-05-07 02:04 8.54466 124.56712 28259 ft 446 kts 161°
2026-05-07 02:05 8.51510 124.57676 28459 ft 448 kts 161°
2026-05-07 02:05 8.48518 124.58649 28654 ft 449 kts 161°
2026-05-07 02:05 8.45541 124.59587 28841 ft 451 kts 164°
2026-05-07 02:05 8.42405 124.60091 28896 ft 452 kts 176°
2026-05-07 02:06 8.39250 124.59976 28905 ft 453 kts 187°
2026-05-07 02:06 8.33159 124.58317 28934 ft 453 kts 198°
2026-05-07 02:07 8.27177 124.56335 28952 ft 453 kts 198°
2026-05-07 02:07 8.18131 124.53391 28979 ft 453 kts 197°
2026-05-07 02:08 8.12112 124.51454 28998 ft 453 kts 197°
2026-05-07 02:08 8.06086 124.49518 29015 ft 453 kts 197°
2026-05-07 02:09 8.00057 124.47581 29031 ft 453 kts 197°
2026-05-07 02:09 7.94003 124.45639 29042 ft 452 kts 197°
2026-05-07 02:10 7.87957 124.43702 29050 ft 452 kts 197°
2026-05-07 02:10 7.81917 124.41767 29054 ft 452 kts 197°
2026-05-07 02:11 7.75893 124.39837 29055 ft 451 kts 197°
2026-05-07 02:11 7.69867 124.37907 29044 ft 452 kts 197°
2026-05-07 02:12 7.63866 124.35986 29015 ft 453 kts 197°
2026-05-07 02:12 7.57821 124.34051 28987 ft 453 kts 197°
2026-05-07 02:13 7.54818 124.33089 28822 ft 453 kts 197°
2026-05-07 02:13 7.51805 124.32125 28568 ft 451 kts 197°
2026-05-07 02:13 7.48795 124.31161 28320 ft 449 kts 197°
2026-05-07 02:13 7.45803 124.30203 28070 ft 448 kts 197°
2026-05-07 02:14 7.42821 124.29250 27809 ft 446 kts 197°
2026-05-07 02:14 7.39877 124.28308 27536 ft 445 kts 197°
2026-05-07 02:14 7.36916 124.27361 27190 ft 443 kts 197°
2026-05-07 02:14 7.33992 124.26426 26762 ft 440 kts 197°
2026-05-07 02:15 7.31066 124.25491 26304 ft 437 kts 197°
2026-05-07 02:15 7.28170 124.24564 25829 ft 434 kts 197°
2026-05-07 02:15 7.25291 124.23644 25351 ft 432 kts 197°
2026-05-07 02:15 7.22443 124.22733 24879 ft 429 kts 197°
2026-05-07 02:16 7.19539 124.21899 24373 ft 426 kts 189°
2026-05-07 02:16 7.16612 124.21933 23864 ft 420 kts 166°
2026-05-07 02:16 7.13952 124.23033 23385 ft 413 kts 145°
2026-05-07 02:16 7.11703 124.24805 22933 ft 408 kts 138°
2026-05-07 02:17 7.09513 124.26640 22460 ft 407 kts 138°
2026-05-07 02:17 7.07348 124.28442 22001 ft 405 kts 139°
2026-05-07 02:17 7.05154 124.30248 21546 ft 403 kts 139°
2026-05-07 02:17 7.02996 124.32013 21123 ft 400 kts 139°
2026-05-07 02:18 7.00854 124.33757 20704 ft 397 kts 139°
2026-05-07 02:18 6.98686 124.35519 20276 ft 394 kts 139°
2026-05-07 02:18 6.96560 124.37243 19856 ft 391 kts 139°
2026-05-07 02:18 6.94458 124.38947 19433 ft 388 kts 139°
2026-05-07 02:19 6.92353 124.40655 19009 ft 385 kts 139°
2026-05-07 02:19 6.90293 124.42324 18583 ft 382 kts 139°
2026-05-07 02:19 6.88218 124.44004 18162 ft 379 kts 139°
2026-05-07 02:19 6.86158 124.45671 17740 ft 376 kts 139°
2026-05-07 02:20 6.84122 124.47320 17312 ft 373 kts 139°
2026-05-07 02:20 6.82099 124.48957 16880 ft 371 kts 139°
2026-05-07 02:20 6.80098 124.50578 16446 ft 368 kts 139°
2026-05-07 02:20 6.78108 124.52190 16007 ft 367 kts 139°
2026-05-07 02:21 6.76107 124.53810 15548 ft 365 kts 138°
2026-05-07 02:21 6.74139 124.55404 15104 ft 363 kts 139°
2026-05-07 02:21 6.72178 124.56992 14663 ft 362 kts 139°
2026-05-07 02:21 6.70228 124.58570 14225 ft 360 kts 139°
2026-05-07 02:22 6.68264 124.60160 13783 ft 358 kts 139°
2026-05-07 02:22 6.66330 124.61715 13345 ft 357 kts 140°
2026-05-07 02:22 6.64358 124.63226 12903 ft 355 kts 141°
2026-05-07 02:22 6.62371 124.64722 12452 ft 354 kts 141°
2026-05-07 02:23 6.60405 124.66204 11997 ft 352 kts 141°
2026-05-07 02:23 6.58454 124.67676 11552 ft 350 kts 141°
2026-05-07 02:23 6.56499 124.69155 11106 ft 349 kts 141°
2026-05-07 02:23 6.54577 124.70610 10669 ft 347 kts 141°
2026-05-07 02:24 6.52654 124.72068 10331 ft 341 kts 141°
2026-05-07 02:24 6.50780 124.73489 10169 ft 329 kts 141°
2026-05-07 02:24 6.48982 124.74853 10058 ft 316 kts 141°
2026-05-07 02:24 6.47250 124.76167 9861 ft 309 kts 141°
2026-05-07 02:25 6.45527 124.77476 9566 ft 304 kts 141°
2026-05-07 02:25 6.43844 124.78754 9164 ft 304 kts 141°
2026-05-07 02:25 6.42162 124.80031 8757 ft 304 kts 141°
2026-05-07 02:25 6.40457 124.81324 8366 ft 302 kts 141°
2026-05-07 02:26 6.38858 124.82675 7988 ft 300 kts 133°
2026-05-07 02:26 6.37511 124.84269 7613 ft 297 kts 125°
2026-05-07 02:26 6.36324 124.85943 7249 ft 295 kts 123°
2026-05-07 02:26 6.35166 124.87625 6885 ft 292 kts 123°
2026-05-07 02:27 6.34007 124.89307 6530 ft 290 kts 123°
2026-05-07 02:27 6.32865 124.90954 6181 ft 287 kts 124°
2026-05-07 02:27 6.31721 124.92595 5828 ft 285 kts 124°
2026-05-07 02:27 6.30583 124.94222 5475 ft 283 kts 124°
2026-05-07 02:28 6.29457 124.95830 5125 ft 281 kts 124°
2026-05-07 02:28 6.28336 124.97442 4774 ft 278 kts 122°
2026-05-07 02:28 6.27434 124.99139 4423 ft 275 kts 111°
2026-05-07 02:28 6.26810 125.00940 4124 ft 270 kts 106°
2026-05-07 02:29 6.26280 125.02705 4085 ft 255 kts 105°
2026-05-07 02:29 6.25781 125.04388 4021 ft 247 kts 105°
2026-05-07 02:29 6.25295 125.06004 3865 ft 239 kts 108°
2026-05-07 02:29 6.24465 125.07426 3621 ft 235 kts 140°
2026-05-07 02:30 6.22984 125.08026 3471 ft 230 kts 174°
2026-05-07 02:30 6.21413 125.08056 3414 ft 214 kts 179°
2026-05-07 02:30 6.19963 125.08072 3078 ft 204 kts 177°
2026-05-07 02:30 6.18583 125.08144 2764 ft 192 kts 175°
2026-05-07 02:31 6.17300 125.08253 2482 ft 179 kts 173°
2026-05-07 02:31 6.16104 125.08376 2222 ft 164 kts 173°
2026-05-07 02:31 6.15017 125.08498 1995 ft 153 kts 172°
2026-05-07 02:31 6.13950 125.08624 1815 ft 152 kts 172°
2026-05-07 02:32 6.12890 125.08752 1620 ft 151 kts 172°
2026-05-07 02:32 6.11848 125.08879 1424 ft 151 kts 172°
2026-05-07 02:32 6.10808 125.09006 1227 ft 150 kts 172°
2026-05-07 02:32 6.09761 125.09133 1025 ft 150 kts 172°
2026-05-07 02:33 6.08733 125.09260 835 ft 149 kts 172°
2026-05-07 02:33 6.07697 125.09392 670 ft 149 kts 172°
2026-05-07 02:33 6.06664 125.09513 525 ft 144 kts 170°
2026-05-07 02:33 6.05822 125.09616 525 ft 96 kts 172°
2026-05-07 02:34 6.05325 125.09676 525 ft 49 kts 173°
2026-05-07 02:34 6.05084 125.09705 525 ft 23 kts 173°
2026-05-07 02:34 6.04969 125.09719 525 ft 15 kts 173°
2026-05-07 02:34 6.04891 125.09740 525 ft 8 kts 155°
2026-05-07 02:35 6.04837 125.09735 525 ft 6 kts 203°
2026-05-07 02:35 6.04801 125.09728 525 ft 3 kts 155°
2026-05-07 02:35 6.04804 125.09738 525 ft 2 kts 26°
2026-05-07 02:35 6.04834 125.09737 525 ft 5 kts 353°
2026-05-07 02:36 6.04874 125.09732 525 ft 6 kts 353°
2026-05-07 02:36 6.04922 125.09726 525 ft 7 kts 352°
2026-05-07 02:36 6.04980 125.09718 525 ft 8 kts 352°
2026-05-07 02:36 6.05044 125.09710 525 ft 9 kts 353°
2026-05-07 02:37 6.05117 125.09701 524 ft 10 kts 353°
2026-05-07 02:37 6.05196 125.09692 524 ft 11 kts 353°
2026-05-07 02:37 6.05279 125.09682 524 ft 11 kts 353°
2026-05-07 02:37 6.05353 125.09673 524 ft 8 kts 353°
2026-05-07 02:38 6.05395 125.09692 524 ft 7 kts 67°
2026-05-07 02:38 6.05404 125.09748 524 ft 8 kts 83°
2026-05-07 02:38 6.05411 125.09813 524 ft 9 kts 83°
2026-05-07 02:38 6.05418 125.09872 524 ft 7 kts 83°
2026-05-07 02:39 6.05448 125.09906 524 ft 7 kts 11°
2026-05-07 02:39 6.05505 125.09904 524 ft 8 kts 354°
2026-05-07 02:39 6.05570 125.09896 524 ft 9 kts 353°
2026-05-07 02:39 6.05636 125.09888 524 ft 6 kts 353°
2026-05-07 02:40 6.05679 125.09882 524 ft 3 kts 353°
2026-05-07 02:40 6.05700 125.09893 524 ft 3 kts 60°
2026-05-07 02:40 6.05703 125.09902 524 ft 4 kts 80°
2026-05-07 02:40 6.05708 125.09943 524 ft 2 kts 83°
2026-05-07 02:41 6.05709 125.09953 524 ft 1 kts 83°
2026-05-07 02:41 6.05710 125.09963 524 ft 1 kts 83°
2026-05-07 02:41 6.05711 125.09965 524 ft 0 kts 83°